Regional Weather Roundup
Issued by NWS San Diego, CA

Home | Current Version | Previous Version | Text Only | Print | Product List | Glossary On
Versions: 1 2 3 4 5 6 7 8 9 10 11 12 13 14 15 16 17 18 19 20 21 22 23 24 25 26 27 28 29 30 31 32 33 34 35 36 37 38 39 40 41 42 43 44 45 46 47 48 49 50
000
ASUS46 KSGX 271510
RWRSGX

SAN DIEGO HOURLY WEATHER ROUNDUP
NATIONAL WEATHER SERVICE SAN DIEGO CA
700 AM PST TUE JAN 27 2015

NOTE: "FAIR" INDICATES FEW OR NO CLOUDS BELOW 12,000 FEET WITH NO
SIGNIFICANT WEATHER AND/OR OBSTRUCTIONS TO VISIBILITY.

CAZ042-043-060-061-PZZ750-775-271600-

GREATER SAN DIEGO AREA

CITY           SKY/WX    TMP DP  RH WIND       PRES   REMARKS
LINDBERGH FLD  MOCLDY    56  50  80 CALM      30.18R
POINT LOMA       N/A     58  50  74 E6          N/A
CHULA VISTA      N/A     52  50  91 CALM      30.10R
IMPERIAL BEACH MOCLDY    55  49  80 CALM      30.17R
BROWN FIELD    MOCLDY    54  47  77 SE7       30.17R
MIRAMAR MCAS   MOCLDY    55  48  77 CALM      30.17R
MONTGOMERY FLD MOCLDY    54  50  86 CALM      30.17R

$$

NORTH SAN DIEGO COUNTY

CITY           SKY/WX    TMP DP  RH WIND       PRES   REMARKS
CAMP PENDLETON PTCLDY    47  44  90 CALM      30.18R FOG
OCEANSIDE AP   PTCLDY    49  47  93 NE5       30.16R
VISTA            N/A     49  45  85 CALM      30.15R
CARLSBAD       PTCLDY    54  49  83 CALM      30.16R
DEL MAR          N/A     55  51  87 CALM      30.19R
FALLBROOK        N/A     54  54 100 N5        30.19R
POWAY            N/A     49  48  93 CALM      30.20R

$$

EAST SAN DIEGO COUNTY

CITY           SKY/WX    TMP DP  RH WIND       PRES   REMARKS
RAMONA         CLOUDY    47  46  97 SE3       30.18R
SANTEE LAKES     N/A     50  48  93 CALM      30.19R
LA MESA          N/A     55  50  82 CALM      30.11R
JAMUL            N/A     52  48  84 CALM      30.17R
DESCANSO N       N/A     51  45  79 E5        30.09R
MT. LAGUNA OBS   N/A     40  40 100 SW7       29.79R
CAMPO            N/A     42  40  92 NE3       30.17R

$$

ORANGE COUNTY AND THE LOS ANGELES BASIN

CITY           SKY/WX    TMP DP  RH WIND       PRES   REMARKS
JOHN WAYNE AP  PTCLDY    56  49  77 CALM      30.17R
LAGUNA BEACH     N/A     47  46  96 CALM      30.13R
LAKE FOREST FR   N/A     54  48  82 CALM      30.08R
SANTA ANA        N/A     53  49  87 CALM      30.13R
HUNTINGTON BCH   N/A     51  50  95 CALM      30.19R
LOS ALAMITOS   PTCLDY    53  53 100 CALM      30.17R FOG
FULLERTON      CLOUDY    55  52  89 CALM      30.17R FOG
LONG BEACH     CLEAR     54  52  93 NW5       30.18R FOG
L.A. AP        MOCLDY    58  54  86 VRB3      30.18R
L.A. DOWNTOWN  CLOUDY    59  53  80 CALM      30.17R

$$

THE INLAND EMPIRE

CITY           SKY/WX    TMP DP  RH WIND       PRES   REMARKS
CORONA         FOG       50  32  50 CALM      30.19R VSB<1/4
CHINO          MOCLDY    54  52  93 CALM      30.19R FOG
ONTARIO        MOCLDY    57  53  86 CALM      30.18R
RIVERSIDE AP   CLOUDY    54  53  97 CALM      30.18R FOG
RIV CYN CREST    N/A     55  55 100 CALM        N/A
MARCH ARB      PTCLDY    52  52 100 S5        30.18R
HORSETHIEF CYN   N/A     51  47  88 E3        30.12R
MENIFEE          N/A     50  49  99 CALM      30.28R
HEMET EAST       N/A     52  45  75 CALM      30.19R
FRENCH VALLEY  CLOUDY    46  46 100 CALM      30.20R
TEMECULA         N/A     50  50  98 CALM      30.14S

$$

SAN BERNARDINO AND RIVERSIDE COUNTY MOUNTAINS

CITY           SKY/WX    TMP DP  RH WIND       PRES   REMARKS
BIG BEAR AP    CLEAR     32  30  93 CALM      30.24R
PINE COVE        N/A     40  39  97 CALM      30.19R

$$

SOUTHERN DESERT INCLUDING THE COACHELLA VALLEY

CITY           SKY/WX    TMP DP  RH WIND       PRES   REMARKS
PALM SPRINGS   MOCLDY    58  54  86 CALM      30.25R
PALM DESERT      N/A     57  55  92 CALM      27.17S
THERMAL        CLOUDY    57  56  96 CALM      30.22R FOG
BLYTHE         PTCLDY    53  53 100 CALM      30.23R
IMPERIAL AP    FOG       52  52 100 W3        30.22R VSB 1/4
EL CENTRO NAS  MOCLDY    55  53  93 CALM      30.22R FOG
YUMA AZ        MOCLDY    57  53  86 NE13      30.21R
MEXICALI       CLOUDY    54  52  94 N5        30.22

$$

UPPER DESERT

CITY           SKY/WX    TMP DP  RH WIND       PRES   REMARKS
VICTORVILLE AP FOG       45  45 100 CALM      30.21R VSB<1/4
HESPERIA         N/A     45  45  98 CALM      30.32R
APPLE VALLEY     N/A     47  44  92 CALM      30.23R
PALMDALE       CLOUDY    48  46  93 CALM      30.21R FOG
LANCASTER      CLOUDY    48  46  93 CALM      30.22R
EDWARDS AFB    CLOUDY    49  49 100 NE3       30.19R
DAGGETT        MOCLDY    48  47  96 E5        30.22R
29 PALMS N     CLOUDY    51  50  96 SE7       30.31R
NEEDLES        CLOUDY    55  51  86 SW5       30.26R

$$

REGIONAL REPORTS

CITY           SKY/WX    TMP DP  RH WIND       PRES   REMARKS
SANTA BARBARA  MOCLDY    57  54  89 CALM      30.17R
SANDBERG       LGT RAIN  46  43  89 S8        30.21R VSB 1/4
MT. WILSON       N/A     37  39 100 MISG        N/A
LAS VEGAS NV   CLOUDY    51  49  92 SE5       30.21R
PHOENIX AZ     MOCLDY    56  51  84 CALM      30.21R
TIJUANA        MOCLDY    55  45  67 SE7       30.18R

$$

OFFSHORE ISLANDS

CITY           SKY/WX    TMP DP  RH WIND       PRES   REMARKS
CATALINA ARPT  CLEAR     56  43  61 N3        30.19R
SAN CLEMENTE I PTCLDY    60  48  65 VRB2      30.15R
SAN NICOLAS IS MOCLDY    59  54  83 NE3       30.17R

$$

MARINE AND OFFSHORE BUOY REPORTS

STATION/POSITION SKY/WX   TEMP    WIND        PRES    SWELL
                          AIR SEA DIR/SP/G            HT/PER/DIR
                          (F)     (DEG/KT/KT) (MB)    (FT/S/D)
TANNER BANKS               62 62  120/  8/ 12 1020.9R   7/270/15
S CLEMENTE BASIN           62 62   50/  4/  4 1021.2R   5/290/15
SAN NICOLAS IS.               62                N/A     7/290/14
SO. S. ROSA ISLA           60 60  140/  6/  8 1020.8R   8/14
W. S. BARBARA CH           60 60   70/ 10/ 12 1020.9R   7/270/14
S. MONICA BASIN            61 62  130/  4/  6 1022.2R   5/260/15
S PEDRO CHANNEL               62                N/A     3/270/14
DANA POINT                    62                N/A     3/270/15
CMP PENDLETON NS              61                N/A     2/240/14
OCEANSIDE OFFSHR              62                N/A     3/260/15
TORREY PINES OTR              62                N/A     3/270/15
LA JOLLA 1                 59 62  120/  2/  3 1021.7R
MISSION BAY BUOY              62                N/A     3/270/15
SAN DIEGO BAY                 62              1022.1R
POINT LOMA SOUTH              62                N/A     3/260/14

$$



USA.gov is the U.S. government's official web portal to all federal, state and local government web resources and services.